COSMOS 2454

导读

COSMOS 2454是独联体(CIS)发射的一颗军用卫星,属于苏联/俄罗斯"宇宙"(COSMOS)卫星系列。它于2009年7月21日发射入轨,该系列卫星多承担军事侦察、电子情报收集等任务,部分卫星承担技术试验与空间监视功能,延续了苏联对军用卫星统一命名的传统,具体任务细节常不对外公开,是独联体空间军事观测体系的组成部分。

基本信息
目录编号:
35635
目录名称:
COSMOS 2454
国际标识:
2009-039A
轨道中心:
EARTH
卫星名称:
COSMOS 2454
卫星全名:
--
卫星状态:
在轨 (已飞行6170 天)
发射日期:
2009-07-21 UTC
国别 :
俄罗斯(独联体) (CIS)
星等 :
--
轨道信息
数据来源 国际轨道数据 AOE轨道数据
星历时间 2026-06-12T12:00:23+0800
15小时前
查看轨道信息
2026-06-11T00:00:00+0800
2天前
查看轨道信息
半长轴 7306.938km 7306.939km
偏心率 0.0017777 0.0017761
轨道倾角 82.957° 82.957°
近地点辐角 273.947° 279.076°
升交点赤经 31.085° 32.222°
平近点角 202.260° 254.330°
近地点 915.811km 915.824km
远地点 941.791km 941.78km
周期 103.601分钟 103.601分钟
每日圈数 13.899516 13.899514
详细信息
使用方式:
暂无
2D轨道图
3D轨道图
轨道高度分析图
轨道倾角分析图
轨道综合分析图
查看轨道综合分析图